Regional Weather Roundup
Issued by NWS

Home | Current Version | Previous Version | Graphics & Text | Print | Product List | Glossary On
Versions: 1 2 3 4 5 6 7 8 9 10 11 12 13 14 15 16 17 18 19 20 21 22 23 24 25 26 27 28 29 30 31 32 33 34 35 36 37 38 39 40 41 42 43 44 45 46 47 48 49 50
000
ASUS43 KIND 021859
RWRIN

WEATHER ROUNDUP FOR INDIANA
NATIONAL WEATHER SERVICE INDIANAPOLIS IN
200 PM EST MON MAR 02 2015

NOTE: "FAIR" INDICATES FEW OR NO CLOUDS BELOW 12,000 FEET WITH NO
SIGNIFICANT WEATHER AND/OR OBSTRUCTIONS TO VISIBILITY.

* - STATION DOES NOT REPORT WEATHER SUCH AS PRECIPITATION OR FOG.

+ - STATION NOT QUALITY CONTROLLED BY THE NATIONAL WEATHER SERVICE.
    USE DATA WITH CAUTION...ESPECIALLY DEWPOINT AND RELATIVE
    HUMIDITY OBSERVATIONS.

INZ001>003-010>013-019-020-022000-
NORTHWEST INDIANA

CITY           SKY/WX    TMP DP  RH WIND       PRES   REMARKS
GARY /AIRPORT/ MOSUNNY   30  12  47 NE5       30.51F WCI  25
MONTICELLO +   FAIR      23  14  69 W3        30.51F
VALPARAISO     NOT AVBL

$$

LMZ046-743>745-022000-
SOUTHERN LAKE MICHIGAN

STATION/POSITION TIME  TEMP WIND        PRES
                       AIR  DIR/SP/G
                 (UTC) (F)  (DEG/KT/KT) (MB)
MICHIGAN CITY    1800   29  260/  3/  4   N/A

$$

INZ004-005-014>016-021>024-022000-
NORTH CENTRAL INDIANA

CITY           SKY/WX    TMP DP  RH WIND       PRES   REMARKS
ELKHART        MOSUNNY   28  12  50 W7        30.48F WCI  21
GOSHEN         SUNNY     27  16  63 W8        30.47F WCI  19
SOUTH BEND     FAIR      29  15  56 NW8       30.49F WCI  21

$$

INZ006>009-017-018-025>027-022000-
NORTHEAST INDIANA

CITY           SKY/WX    TMP DP  RH WIND       PRES   REMARKS
ANGOLA *+      SUNNY     28  14  54 W7        30.46F WCI  21
FORT WAYNE     PTSUNNY   28  15  58 W10       30.49F WCI  19

$$

INZ028-029-035-036-043>045-051>053-022000-
WEST CENTRAL INDIANA

CITY           SKY/WX    TMP DP  RH WIND       PRES   REMARKS
CRAWFORDSVL +  MOSUNNY   28  11  49 CALM      30.48F
GREENCASTLE +  MOSUNNY   30  12  47 E3        30.49F
LAFAYETTE      MOSUNNY   28  15  58 CALM      30.50F
TERRE HAUTE    SUNNY     31  15  52 E5        30.49F WCI  26

$$

INZ030>032-037>040-046>048-054>057-064-065-022000-
CENTRAL INDIANA

CITY           SKY/WX    TMP DP  RH WIND       PRES   REMARKS
ANDERSON       SUNNY     28  12  50 CALM      30.50
GREENWOOD *+   MOSUNNY   28  10  47 E5        30.49F WCI  23
INDIANAPOLIS   PTSUNNY   30  16  56 CALM      30.47F
-EAGLE CREEK   MOSUNNY   31  13  47 CALM      30.48F
KOKOMO *+      SUNNY     25  16  68 CALM      30.50F
MT COMFORT *+  SUNNY     30   5  34 E3        30.49F
SHELBYVILLE    SUNNY     30  15  53 CALM      30.49F

$$

INZ033-034-041-042-049-050-058-059-022000-
EAST CENTRAL INDIANA

CITY           SKY/WX    TMP DP  RH WIND       PRES   REMARKS
MUNCIE         SUNNY     27  14  58 N7        30.49F WCI  19

$$

INZ060-061-067>069-081>083-085>088-022000-
SOUTHWEST INDIANA

CITY           SKY/WX    TMP DP  RH WIND       PRES   REMARKS
EVANSVILLE     SUNNY     35  18  49 E9        30.49F WCI  28
HUNTINGBURG *+ SUNNY     36  18  48 N7        30.48F

$$

INZ062-063-066-070>080-084-089>092-022000-
SOUTH CENTRAL AND SOUTHEAST INDIANA

CITY           SKY/WX    TMP DP  RH WIND       PRES   REMARKS
BLOOMINGTON    FLURRIES  34  14  43 CALM      30.46F
SEYMOUR +      SUNNY     34  16  47 NW3       30.49F

$$




USA.gov is the U.S. government's official web portal to all federal, state and local government web resources and services.